GW4591 Weather Reports


time (UTC)temp
F
wind
direction
speed
knots
gust
knots
rain 1hr
in
rain 24hr
in
rain mn
in
humidity
%
barometer
mb
20260507122506 42 234 1.7 8.7 0.06 0.46 0.08 80 1013.6
20260507122048 42 233 2.6 10.4 0.06 0.46 0.08 79 1013.6
20260507121528 41 186 2.6 13.0 0.06 0.46 0.08 80 1013.6
20260507121008 41 267 4.3 13.0 0.06 0.46 0.08 81 1013.5
20260507120551 41 211 7.0 14.8 0.06 0.46 0.08 81 1013.7
20260507120033 40 203 5.2 14.8 0.06 0.46 0.08 82 1013.7
20260507115512 40 190 4.3 13.0 0.06 0.47 0.07 84 1013.9
20260507115055 40 188 6.1 13.0 0.06 0.47 0.07 84 1013.9
20260507114602 40 180 6.1 10.4 0.04 0.46 0.06 84 1014.1
20260507114014 39 159 7.0 11.3 0.04 0.46 0.06 88 1014.1
20260507113558 39 186 1.7 9.6 0.02 0.44 0.04 89 1014.2
20260507113038 40 162 3.5 10.4 0.02 0.44 0.04 89 1014.2
20260507112522 40 194 3.5 6.1 0.01 0.43 0.02 91 1014.1
20260507112105 41 258 2.6 7.0 0.01 0.43 0.02 91 1014.1
20260507111542 41 214 3.5 7.0 0.01 0.43 0.02 91 1014.1
20260507111021 41 184 1.7 6.1 0.00 0.42 0.02 92 1014.0
20260507110501 41 224 2.6 6.1 0.00 0.42 0.02 92 1013.9
20260507110045 41 241 1.7 6.1 0.00 0.42 0.02 92 1013.9
20260507105526 41 243 1.7 7.8 0.00 0.50 0.02 93 1013.9
20260507105008 41 220 3.5 9.6 0.00 0.50 0.02 92 1013.9
20260507104548 41 206 4.3 9.6 0.00 0.50 0.02 92 1013.8
20260507104028 42 257 2.6 6.1 0.00 0.50 0.02 93 1013.7
20260507103508 42 257 0.9 5.2 0.00 0.50 0.02 92 1013.8
20260507103053 42 260 1.7 5.2 0.00 0.50 0.02 92 1013.7
20260507102532 42 261 0.9 3.5 0.00 0.50 0.02 92 1013.7
20260507102012 42 260 1.7 3.5 0.00 0.50 0.02 91 1013.8
20260507101603 43 337 0.9 5.2 0.00 0.50 0.02 92 1013.8
20260507101035 43 339 3.5 5.2 0.00 0.50 0.02 91 1013.8
20260507100515 43 278 1.7 3.5 0.00 0.50 0.02 91 1013.8
20260507100103 43 288 0.0 3.5 0.00 0.50 0.02 90 1013.9
20260507095521 43 288 1.7 3.5 0.00 0.55 0.02 90 1013.9
20260507095001 43 270 0.9 2.6 0.00 0.55 0.02 90 1013.9
20260507094542 43 269 0.0 3.5 0.00 0.55 0.02 90 1013.9
20260507094021 43 270 0.9 2.6 0.00 0.55 0.02 90 1013.9
20260507093503 43 240 0.9 2.6 0.00 0.55 0.02 90 1013.9
20260507093048 43 261 0.9 4.3 0.00 0.55 0.02 89 1013.8
20260507092526 43 261 1.7 4.3 0.00 0.55 0.02 88 1013.7
20260507092003 43 308 1.7 3.5 0.00 0.55 0.02 89 1013.7
20260507091548 43 29 1.7 3.5 0.00 0.55 0.02 89 1013.7
20260507091027 43 34 1.7 3.5 0.00 0.55 0.02 89 1013.6
20260507090509 42 355 0.0 2.6 0.00 0.55 0.02 90 1013.7
20260507090050 42 355 0.9 3.5 0.00 0.55 0.02 90 1013.7
20260507085531 42 347 0.9 5.2 0.00 0.56 0.02 89 1013.7
20260507085011 43 329 2.6 4.3 0.00 0.56 0.02 88 1013.7
20260507084600 43 322 1.7 7.0 0.00 0.56 0.02 88 1013.8
20260507084034 43 229 2.6 7.0 0.00 0.56 0.02 90 1013.8
20260507083515 42 262 0.9 3.5 0.00 0.56 0.02 91 1013.7
20260507083059 42 257 1.7 3.5 0.00 0.56 0.02 92 1013.7
20260507082541 41 189 0.9 3.5 0.00 0.56 0.02 93 1013.8
20260507082018 40 284 0.0 1.7 0.00 0.56 0.02 93 1013.7
20260507081602 40 284 0.0 1.7 0.00 0.56 0.02 93 1013.6
20260507081044 40 284 0.0 0.0 0.00 0.56 0.02 93 1013.6
20260507080522 40 284 0.0 1.7 0.00 0.56 0.02 93 1013.5
20260507080003 39 284 0.9 2.6 0.00 0.56 0.02 93 1013.6
20260507075545 39 284 0.0 2.6 0.00 0.57 0.02 93 1013.5
20260507075026 39 284 0.9 2.6 0.00 0.57 0.02 93 1013.5
20260507074507 39 284 0.9 2.6 0.00 0.57 0.02 94 1013.5
20260507074050 39 284 0.9 2.6 0.00 0.57 0.02 94 1013.4
20260507073529 39 284 0.0 2.6 0.00 0.57 0.02 94 1013.3
20260507073011 39 284 0.9 2.6 0.00 0.57 0.02 94 1013.3
20260507072554 39 284 0.9 2.6 0.00 0.57 0.02 94 1013.3
20260507072034 39 286 0.9 2.6 0.00 0.57 0.02 93 1013.2
20260507071514 39 285 0.9 2.6 0.00 0.57 0.02 93 1013.1
20260507071057 39 285 0.9 2.6 0.00 0.57 0.02 93 1013.1
20260507070538 39 285 0.9 2.6 0.00 0.57 0.02 94 1013.1
20260507070012 39 284 0.0 0.9 0.00 0.57 0.02 94 1013.0
20260507065532 39 284 0.0 0.9 0.00 0.59 0.02 93 1012.9
20260507065010 39 284 0.0 1.7 0.00 0.59 0.02 93 1012.9
20260507064559 39 284 0.0 1.7 0.00 0.59 0.02 93 1012.8
20260507064034 39 284 0.0 2.6 0.00 0.59 0.02 93 1012.8
20260507063514 39 285 0.0 0.9 0.00 0.59 0.02 93 1012.7
20260507063105 39 285 0.0 0.9 0.00 0.59 0.02 93 1012.8
20260507062537 39 285 0.0 0.9 0.00 0.59 0.02 93 1012.6
20260507062017 39 285 0.0 1.7 0.00 0.59 0.02 92 1012.6
20260507061602 39 285 0.0 2.6 0.00 0.59 0.02 92 1012.6
20260507061041 39 285 0.9 2.6 0.00 0.59 0.02 92 1012.6
20260507060521 39 285 0.0 1.7 0.00 0.59 0.02 92 1012.6
20260507060104 39 285 0.0 1.7 0.00 0.59 0.02 91 1012.6
20260507055543 39 285 0.0 2.6 0.00 0.60 0.02 91 1012.5
20260507055027 39 285 0.0 2.6 0.00 0.60 0.02 91 1012.6
20260507054509 40 285 0.9 4.3 0.00 0.60 0.02 90 1012.4
20260507054047 40 251 0.9 4.3 0.00 0.60 0.02 88 1012.4
20260507053527 40 202 0.9 7.8 0.00 0.60 0.02 88 1012.3
20260507053006 40 159 1.7 7.8 0.00 0.60 0.02 88 1012.2
20260507052550 40 174 3.5 7.0 0.00 0.60 0.02 87 1012.2
20260507052030 40 153 0.9 5.2 0.00 0.60 0.02 89 1012.3
20260507051510 40 271 0.9 5.2 0.00 0.60 0.02 90 1012.4
20260507051054 40 184 0.0 3.5 0.00 0.60 0.02 90 1012.3
20260507050534 40 184 1.7 3.5 0.00 0.60 0.02 91 1012.3
20260507050014 39 212 0.9 1.7 0.00 0.60 0.02 91 1012.2
20260507045557 39 213 0.0 2.6 0.00 0.60 0.02 91 1012.2
20260507045038 39 213 0.9 2.6 0.00 0.60 0.02 91 1012.2
20260507044517 39 212 0.9 2.6 0.00 0.60 0.02 90 1012.0
20260507044101 39 207 0.0 1.7 0.00 0.60 0.02 90 1012.1
20260507043541 39 207 0.0 1.7 0.00 0.60 0.02 90 1012.0
20260507043024 39 207 0.0 1.7 0.00 0.60 0.02 90 1012.1
20260507042502 39 207 0.9 1.7 0.00 0.60 0.02 90 1012.0
20260507042045 39 207 0.0 0.0 0.00 0.60 0.02 90 1012.0
20260507041525 39 207 0.0 0.0 0.00 0.60 0.02 89 1011.8
20260507041005 39 207 0.0 0.9 0.00 0.60 0.02 89 1011.8
20260507040549 39 207 0.0 2.6 0.00 0.60 0.02 89 1011.8
20260507040029 39 207 0.0 2.6 0.00 0.60 0.02 89 1011.8
20260507035553 39 207 0.0 3.5 0.00 0.60 0.02 89 1011.8
20260507035034 39 206 0.9 3.5 0.00 0.60 0.02 88 1011.8
20260507034513 39 182 0.9 4.3 0.00 0.60 0.02 89 1011.7
20260507034057 39 215 1.7 2.6 0.00 0.60 0.02 88 1011.7
20260507033537 39 232 0.9 2.6 0.00 0.60 0.02 88 1011.7
20260507033017 39 239 0.0 4.3 0.00 0.60 0.02 88 1011.7
20260507032603 39 244 0.9 4.3 0.00 0.60 0.02 88 1011.6
20260507032040 39 211 1.7 4.3 0.00 0.60 0.02 88 1011.7
20260507031520 39 229 1.7 4.3 0.00 0.60 0.02 87 1011.7
20260507031003 39 180 0.9 3.5 0.00 0.60 0.02 87 1011.5
20260507030543 39 190 0.9 3.5 0.00 0.60 0.02 87 1011.6
20260507030024 39 196 0.9 5.2 0.00 0.60 0.02 86 1011.5
20260507025504 38 165 1.7 4.3 0.00 0.60 0.02 85 1011.7
20260507025046 38 173 1.7 4.3 0.00 0.60 0.02 85 1011.7
20260507024526 38 186 0.9 3.5 0.00 0.60 0.02 85 1011.6
20260507024009 38 192 0.9 4.3 0.00 0.60 0.02 86 1011.7
20260507023552 38 182 0.0 5.2 0.00 0.60 0.02 87 1011.6
20260507023029 38 178 2.6 5.2 0.00 0.60 0.02 88 1011.6
20260507022510 38 180 0.0 4.3 0.00 0.60 0.02 89 1011.6
20260507022053 38 205 0.9 3.5 0.00 0.60 0.02 90 1011.7
20260507021534 39 190 0.9 3.5 0.00 0.60 0.02 90 1011.7
20260507021012 39 175 0.9 3.5 0.00 0.60 0.02 90 1011.7
20260507020555 39 311 0.9 2.6 0.00 0.60 0.02 90 1011.7
20260507020050 39 313 0.0 2.6 0.00 0.60 0.02 90 1011.7
20260507015514 39 315 0.0 1.7 0.00 0.60 0.02 89 1011.7
20260507015059 39 315 0.0 1.7 0.00 0.60 0.02 89 1011.5
20260507014540 39 315 0.9 4.3 0.00 0.60 0.02 89 1011.5
20260507014019 39 315 0.9 4.3 0.00 0.60 0.02 88 1011.4
20260507013603 39 236 0.0 3.5 0.00 0.60 0.02 87 1011.3
20260507013051 39 177 0.0 4.3 0.00 0.60 0.02 87 1011.4
20260507012523 39 177 3.5 7.0 0.00 0.60 0.02 87 1011.4
20260507012002 39 182 3.5 6.1 0.00 0.60 0.02 87 1011.5
20260507011546 39 173 5.2 7.0 0.00 0.60 0.02 88 1011.5
20260507011025 39 148 1.7 7.0 0.00 0.60 0.02 87 1011.6
20260507010506 39 20 0.0 1.7 0.00 0.60 0.02 87 1011.6
20260507010053 39 22 0.0 4.3 0.00 0.60 0.02 87 1011.5
20260507005512 39 22 1.7 4.3 0.00 0.60 0.02 87 1011.4
20260507005054 39 23 0.9 4.3 0.00 0.60 0.02 87 1011.4
20260507004540 39 171 1.7 9.6 0.00 0.60 0.02 86 1011.4
20260507004014 39 180 2.6 7.8 0.00 0.60 0.02 86 1011.3
20260507003600 39 170 5.2 7.8 0.00 0.60 0.02 86 1011.3
20260507003044 40 188 4.3 9.6 0.00 0.60 0.02 86 1011.3
20260507002520 40 171 6.1 12.2 0.00 0.60 0.02 87 1011.3
20260507002103 40 159 6.1 9.6 0.00 0.60 0.02 87 1011.3
20260507001546 39 155 5.2 7.8 0.00 0.60 0.02 88 1011.5
20260507001021 39 181 4.3 7.0 0.00 0.60 0.02 88 1011.4
20260507000501 39 193 3.5 6.1 0.00 0.60 0.02 88 1011.5
20260507000045 39 186 3.5 6.1 0.00 0.60 0.02 88 1011.4
20260506235528 39 180 5.2 6.1 0.00 0.61 0.02 89 1011.4
20260506235005 39 186 0.0 1.7 0.01 0.61 0.02 88 1011.4
20260506234552 39 186 0.0 2.6 0.01 0.61 0.02 89 1011.4
20260506234029 39 186 0.9 2.6 0.01 0.61 0.02 88 1011.4
20260506233509 39 186 0.9 2.6 0.01 0.61 0.02 88 1011.4
20260506233108 40 180 0.0 5.2 0.01 0.61 0.02 88 1011.4
20260506232532 40 180 0.9 5.2 0.01 0.61 0.02 87 1011.4
20260506232012 40 236 2.6 7.8 0.01 0.61 0.02 87 1011.4
20260506231601 40 217 2.6 8.7 0.01 0.61 0.02 86 1011.4
20260506231037 40 159 4.3 8.7 0.01 0.61 0.02 86 1011.4
20260506230516 40 206 2.6 14.8 0.01 0.61 0.02 86 1011.4
20260506230100 40 167 7.0 16.5 0.01 0.61 0.02 85 1011.4
20260506225540 40 166 7.0 16.5 0.01 0.60 0.01 86 1011.4
20260506225020 41 141 1.7 15.6 0.01 0.60 0.01 87 1011.6
20260506224604 41 144 7.0 15.6 0.01 0.60 0.01 87 1011.5
20260506224045 41 171 8.7 13.9 0.02 0.60 0.01 87 1011.4
20260506223523 41 164 8.7 13.0 0.02 0.60 0.01 85 1011.5
20260506223002 41 159 9.6 15.6 0.02 0.60 0.01 85 1011.6
20260506222546 41 177 7.0 13.9 0.02 0.60 0.01 86 1011.5
20260506222028 40 161 8.7 12.2 0.02 0.60 0.01 85 1011.5
20260506221506 40 179 9.6 12.2 0.02 0.60 0.01 86 1011.4
20260506221051 40 150 7.8 11.3 0.02 0.60 0.01 86 1011.5
20260506220529 40 210 3.5 9.6 0.02 0.60 0.01 85 1011.6
20260506220009 40 184 5.2 12.2 0.01 0.59 0.00 85 1011.5
20260506215531 41 212 3.5 12.2 0.01 0.59 0.59 86 1011.4
20260506215010 41 176 8.7 13.9 0.01 0.59 0.59 87 1011.4
20260506214556 41 175 5.2 12.2 0.00 0.57 0.57 88 1011.6
20260506214035 41 173 7.0 12.2 0.01 0.57 0.57 89 1011.5
20260506213514 40 182 7.0 12.2 0.01 0.57 0.57 90 1011.6
20260506213120 40 134 7.0 12.2 0.01 0.57 0.57 90 1011.4
20260506212538 39 180 6.1 9.6 0.01 0.57 0.57 91 1011.4
20260506212018 39 173 3.5 7.8 0.01 0.57 0.57 91 1011.5
20260506211602 39 216 1.7 5.2 0.01 0.57 0.57 91 1011.6
20260506211042 39 182 1.7 7.0 0.01 0.57 0.57 92 1011.6
20260506210522 39 205 2.6 7.0 0.01 0.57 0.57 92 1011.8
20260506210003 39 189 0.9 3.5 0.01 0.57 0.57 92 1011.7
20260506205545 39 205 1.7 3.5 0.01 0.57 0.57 92 1011.7
20260506205026 39 243 1.7 6.1 0.01 0.57 0.57 92 1011.5
20260506204506 39 242 1.7 6.1 0.01 0.57 0.57 91 1011.6
20260506204049 39 238 1.7 7.8 0.00 0.56 0.56 91 1011.7
20260506203528 39 234 2.6 7.8 0.00 0.56 0.56 91 1011.7
20260506203008 40 240 2.6 7.0 0.00 0.56 0.56 90 1011.7
20260506202552 40 241 1.7 10.4 0.00 0.56 0.56 89 1011.6
20260506202031 40 241 6.1 10.4 0.00 0.56 0.56 86 1011.5
20260506201513 41 241 2.6 5.2 0.00 0.56 0.56 83 1011.4
20260506201054 41 247 1.7 4.3 0.00 0.56 0.56 83 1011.4